FZAATNCM

Guest
Details From FZAA - NDJILI INTL
To TNCM - St Maarten - Princess Juliana Intl
Flight Number -
Tags decoded
Created
Modified
Stats Distance 4,837 nm / 8,958 km
Max Altitude 0 ft / 0 m
Waypoints 2
Social Downloads 0
Likes 0
Share VATSIM

Download

Looking for another format? Having issues loading an existing format? Contact us
Advertisement - Login to hide

Notes

Requested: FZAA BZ UG856 UR979 TNCM Unmatched points: UG856 UR979

Route

FZAA TNCM

ID Type Via Altitude Latitude Longitude Leg Dist Tot Dist Heading (true) Name
O FZAA APT - 0 ft / 0 m -4.38575˚ 15.44457˚ - 0 nm - NDJILI INTL
O TNCM APT - 0 ft / 0 m 18.04089˚ -63.10897˚ 4836 nm 4836 nm 289° / 278° St Maarten - Princess Juliana Intl

Altitude Profile

Advertisement - Login to hide

Weather


0- 5 10 15 20 25 30 35+ Temperature / ° C

Clouds and Precipitation
Forecast for 2018-05-24 12:00 UTC. Updated 43 minutes ago

Ground ~20,000 ft ~40,000 ft Winds

FZAA

Details ICAO FZAA (FIH)
Name NDJILI INTL
Region Democratic Republic of the Congo
Timezone Africa/Kinshasa (UTC+1.0)
Stats Elevation 1,027 ft / 313 m (AMSL)
Location -4.385750° 15.444570°
Runways 1
Magnetic Variation 1.268° W

METAR

FZAA 240900Z 27010KT 7000 BKN018 26/21 Q1015 NOSIG

Decode

TAF

TAF FZAA 240500Z 2406/2512 23006KT 7000 BKN016 BECMG 2412/2414 33010KT SCT024 BECMG 2416/2418 FEW022 FEW030CB TEMPO 2419/2423 TS BECMG 2501/2503 24004KT BKN016

Decode

Departure Runways

ID Width Length Bearing (true) Bearing (mag) Surface Threshold Offset Overrun Length
06 197 ft / 60 m 15,430 ft / 4,703 m 57.32° 58.59° Concrete 0 ft / 0 m 0 ft / 0 m
24 197 ft / 60 m 15,430 ft / 4,703 m 237.32° 238.59° Concrete 0 ft / 0 m 220 ft / 67 m

TNCM

Details ICAO TNCM (SXM)
Name St Maarten - Princess Juliana Intl
Region Caribbean Netherlands, Aruba, Curaçao, Sint Maarten
Timezone Unknown (UTC+0.0)
Stats Elevation 12 ft / 4 m (AMSL)
Location 18.040889° -63.108974°
Runways 1
Magnetic Variation 14.337° W

METAR

TNCM 241000Z 09010KT 060V130 9999 FEW012 26/22 Q1018 NOSIG RMK A3007 LGT HZ NERN QUAD

Decode

TAF

TNCM 240520Z 2406/2506 07006KT P6SM VCSH SCT018 FM241400 10013KT P6SM SCT020

Decode

Destination Runways

ID Width Length Bearing (true) Bearing (mag) Surface Threshold Offset Overrun Length
10 148 ft / 45 m 7,464 ft / 2,275 m 81.43° 95.77° Asphalt 0 ft / 0 m 151 ft / 46 m
28 148 ft / 45 m 7,464 ft / 2,275 m 261.44° 275.78° Asphalt 397 ft / 121 m 0 ft / 0 m

Popular Alternatives